FW9116 Weather Reports


Display with metric or nautical units.
time (UTC)temp
F
wind
direction
speed
MPH
gust
MPH
rain 1hr
in
rain 24hr
in
rain mn
in
humidity
%
barometer
mb
20260508025054 68 0 0.0 2.0 0.00 0.00 0.00 46 1015.2
20260508024617 68 0 0.0 2.0 0.00 0.00 0.00 47 1015.2
20260508024055 68 5 0.0 2.0 0.00 0.00 0.00 46 1015.3
20260508023555 69 5 0.0 3.0 0.00 0.00 0.00 44 1015.3
20260508023056 69 5 0.0 4.0 0.00 0.00 0.00 44 1015.3
20260508022601 69 37 1.0 5.0 0.00 0.00 0.00 44 1015.2
20260508022055 69 0 1.0 5.0 0.00 0.00 0.00 43 1015.3
20260508021605 69 42 1.0 3.0 0.00 0.00 0.00 43 1015.3
20260508021054 70 0 1.0 4.0 0.00 0.00 0.00 41 1015.2
20260508020554 70 299 1.0 4.0 0.00 0.00 0.00 41 1015.3
20260508020109 70 66 1.0 4.0 0.00 0.00 0.00 41 1015.3
20260508015554 70 203 0.0 3.0 0.00 0.00 0.00 37 1015.5
20260508015054 70 0 1.0 5.0 0.00 0.00 0.00 36 1015.4
20260508014556 70 179 0.0 5.0 0.00 0.00 0.00 36 1015.5
20260508014055 70 178 2.0 4.0 0.00 0.00 0.00 36 1015.5
20260508013555 71 190 0.0 3.0 0.00 0.00 0.00 36 1015.5
20260508013055 71 0 1.0 3.0 0.00 0.00 0.00 36 1015.6
20260508012555 71 0 0.0 4.0 0.00 0.00 0.00 36 1015.6
20260508012055 71 0 1.0 5.0 0.00 0.00 0.00 35 1015.7
20260508011605 71 126 1.0 5.0 0.00 0.00 0.00 35 1015.7
20260508011055 70 57 1.0 6.0 0.00 0.00 0.00 35 1015.7
20260508010555 71 71 3.0 6.0 0.00 0.00 0.00 34 1015.6
20260508010056 71 102 2.0 5.0 0.00 0.00 0.00 34 1015.8
20260508005556 71 0 1.0 5.0 0.00 0.00 0.00 34 1015.9
20260508005055 71 90 3.0 5.0 0.00 0.00 0.00 33 1016.0
20260508004600 71 63 2.0 4.0 0.00 0.00 0.00 33 1016.0
20260508004055 72 23 2.0 4.0 0.00 0.00 0.00 32 1016.0
20260508003554 73 0 0.0 3.0 0.00 0.00 0.00 33 1016.2
20260508003056 72 0 0.0 6.0 0.00 0.00 0.00 32 1016.2
20260508002554 71 0 2.0 6.0 0.00 0.00 0.00 32 1016.1
20260508002054 71 34 1.0 5.0 0.00 0.00 0.00 33 1016.2
20260508001557 71 47 0.0 4.0 0.00 0.00 0.00 32 1016.1
20260508001056 71 0 1.0 4.0 0.00 0.00 0.00 32 1016.1
20260508000555 70 17 1.0 4.0 0.00 0.00 0.00 33 1016.3
20260508000058 70 82 1.0 5.0 0.00 0.00 0.00 34 1016.2
20260507235554 71 144 1.0 6.0 0.00 0.00 0.00 33 1016.3
20260507235054 71 5 2.0 6.0 0.00 0.00 0.00 32 1016.3
20260507234557 70 22 2.0 8.0 0.00 0.00 0.00 35 1016.4
20260507234053 70 142 4.0 8.0 0.00 0.00 0.00 36 1016.4
20260507233554 71 360 1.0 5.0 0.00 0.00 0.00 35 1016.4
20260507233059 71 352 1.0 5.0 0.00 0.00 0.00 37 1016.5
20260507232555 71 50 1.0 5.0 0.00 0.00 0.00 37 1016.6
20260507232057 71 0 0.0 9.0 0.00 0.00 0.00 42 1016.7
20260507231559 71 0 3.0 9.0 0.00 0.00 0.00 41 1016.8
20260507231055 71 253 2.0 8.0 0.00 0.00 0.00 40 1016.7
20260507230557 70 307 1.0 8.0 0.00 0.00 0.00 43 1016.8
20260507230110 70 253 3.0 8.0 0.00 0.00 0.00 43 1016.9
20260507225554 70 182 2.0 6.0 0.00 0.00 0.00 43 1016.8
20260507225054 70 275 1.0 9.0 0.00 0.00 0.00 44 1016.9
20260507224559 70 261 4.0 9.0 0.00 0.00 0.00 43 1017.0
20260507224057 70 115 2.0 6.0 0.00 0.00 0.00 43 1017.1
20260507223555 71 101 0.0 9.0 0.00 0.00 0.00 43 1017.1
20260507223057 70 315 1.0 9.0 0.00 0.00 0.00 44 1017.1
20260507222553 69 0 3.0 8.0 0.00 0.00 0.00 45 1017.3
20260507222053 68 252 3.0 9.0 0.00 0.00 0.00 43 1017.4
20260507221556 69 250 3.0 9.0 0.00 0.00 0.00 42 1017.3
20260507221055 70 286 2.0 8.0 0.00 0.00 0.00 41 1017.4
20260507220554 69 200 1.0 8.0 0.00 0.00 0.00 42 1017.4
20260507220059 68 287 2.0 8.0 0.00 0.00 0.00 41 1017.5
20260507215558 68 260 3.0 8.0 0.00 0.00 0.00 38 1017.5
20260507215054 68 265 2.0 9.0 0.00 0.00 0.00 39 1017.6
20260507214556 67 325 4.0 10.0 0.00 0.00 0.00 42 1017.6
20260507214054 67 248 5.0 10.0 0.00 0.00 0.00 43 1017.7
20260507213554 68 307 4.0 10.0 0.00 0.00 0.00 45 1017.6
20260507213056 68 279 3.0 9.0 0.00 0.00 0.00 44 1017.6
20260507212556 67 298 2.0 5.0 0.00 0.00 0.00 45 1017.6
20260507212054 68 219 1.0 8.0 0.00 0.00 0.00 42 1017.7
20260507211601 68 269 3.0 8.0 0.00 0.00 0.00 46 1017.8
20260507211053 68 281 1.0 8.0 0.00 0.00 0.00 46 1017.8
20260507210557 67 325 3.0 8.0 0.00 0.00 0.00 45 1017.9
20260507210108 69 223 1.0 8.0 0.00 0.00 0.00 47 1018.0
20260507205555 67 326 2.0 8.0 0.00 0.00 0.00 49 1018.1
20260507205054 66 251 2.0 8.0 0.00 0.00 0.00 47 1018.2
20260507204554 66 279 2.0 8.0 0.00 0.00 0.00 48 1018.3
20260507204058 65 232 5.0 8.0 0.00 0.00 0.00 48 1018.4
20260507203554 67 286 2.0 8.0 0.00 0.00 0.00 49 1018.5
20260507203116 68 360 1.0 9.0 0.00 0.00 0.00 52 1018.4
20260507202554 66 342 2.0 9.0 0.00 0.00 0.00 51 1018.5
20260507202057 65 234 3.0 9.0 0.00 0.00 0.00 52 1018.6
20260507201557 66 24 2.0 8.0 0.00 0.00 0.00 53 1018.8
20260507201056 65 264 3.0 8.0 0.00 0.00 0.00 54 1018.7
20260507200556 65 295 1.0 6.0 0.00 0.00 0.00 55 1018.9
20260507200057 64 51 3.0 6.0 0.00 0.00 0.00 54 1018.8
20260507195554 63 123 1.0 6.0 0.00 0.00 0.00 55 1018.9
20260507195100 65 175 2.0 7.0 0.00 0.00 0.00 54 1018.9
20260507194615 64 5 3.0 7.0 0.00 0.00 0.00 55 1019.1
20260507194053 65 306 3.0 7.0 0.00 0.00 0.00 57 1019.2
20260507193554 66 243 0.0 5.0 0.00 0.00 0.00 54 1019.1
20260507193058 64 24 2.0 5.0 0.00 0.00 0.00 58 1019.2
20260507192554 63 258 2.0 7.0 0.00 0.00 0.00 57 1019.3
20260507192054 63 352 1.0 8.0 0.00 0.00 0.00 59 1019.4
20260507191557 62 260 3.0 8.0 0.00 0.00 0.00 61 1019.4
20260507191055 61 283 3.0 7.0 0.00 0.00 0.00 61 1019.3
20260507190554 62 289 3.0 7.0 0.00 0.00 0.00 59 1019.5
20260507190100 62 288 1.0 4.0 0.00 0.00 0.00 60 1019.5
20260507185554 62 250 1.0 7.0 0.00 0.00 0.00 60 1019.6
20260507185054 60 204 3.0 7.0 0.00 0.00 0.00 61 1019.7
20260507184553 61 82 2.0 6.0 0.00 0.00 0.00 61 1019.7
20260507184054 61 120 2.0 6.0 0.00 0.00 0.00 62 1019.7
20260507183553 60 27 2.0 6.0 0.00 0.00 0.00 62 1019.7
20260507183058 60 131 3.0 6.0 0.00 0.00 0.00 65 1019.7
20260507182554 61 0 1.0 6.0 0.00 0.00 0.00 60 1019.8
20260507182053 60 285 1.0 6.0 0.00 0.00 0.00 63 1019.9
20260507181555 58 188 2.0 4.0 0.00 0.00 0.00 63 1019.9
20260507181056 59 0 2.0 6.0 0.00 0.00 0.00 63 1019.9
20260507180556 60 98 2.0 8.0 0.00 0.00 0.00 64 1020.0
20260507180107 59 254 1.0 8.0 0.00 0.00 0.00 62 1019.9
20260507175554 60 44 2.0 8.0 0.00 0.00 0.00 63 1020.1
20260507175054 58 331 3.0 8.0 0.00 0.00 0.00 66 1020.2
20260507174601 59 277 2.0 7.0 0.00 0.00 0.00 64 1020.2
20260507174055 58 283 1.0 8.0 0.00 0.00 0.00 64 1020.2
20260507173554 58 329 1.0 8.0 0.00 0.00 0.00 65 1020.3
20260507173136 58 327 1.0 6.0 0.00 0.00 0.00 65 1020.3
20260507172556 58 28 0.0 6.0 0.00 0.00 0.00 65 1020.3
20260507172056 57 352 2.0 8.0 0.00 0.00 0.00 66 1020.3
20260507171559 57 294 3.0 8.0 0.00 0.00 0.00 67 1020.3
20260507171054 57 298 1.0 7.0 0.00 0.00 0.00 66 1020.2
20260507170554 58 300 2.0 8.0 0.00 0.00 0.00 67 1020.3
20260507170056 56 76 3.0 8.0 0.00 0.00 0.00 68 1020.3
20260507165553 56 74 3.0 8.0 0.00 0.00 0.00 69 1020.4
20260507165053 56 76 3.0 7.0 0.00 0.00 0.00 68 1020.3
20260507164600 55 72 1.0 7.0 0.00 0.00 0.00 69 1020.4
20260507164054 55 23 4.0 9.0 0.00 0.00 0.00 70 1020.4
20260507163553 55 30 4.0 9.0 0.00 0.00 0.00 69 1020.3
20260507163054 55 48 3.0 8.0 0.00 0.00 0.00 70 1020.4
20260507162557 55 5 2.0 8.0 0.00 0.00 0.00 70 1020.4
20260507162056 54 302 2.0 7.0 0.00 0.00 0.00 71 1020.3
20260507161612 54 38 3.0 7.0 0.00 0.00 0.00 71 1020.4
20260507161052 54 75 3.0 7.0 0.00 0.00 0.00 71 1020.4
20260507160554 54 28 1.0 7.0 0.00 0.00 0.00 71 1020.3
20260507160105 54 0 2.0 7.0 0.00 0.00 0.00 72 1020.4
20260507155555 54 326 1.0 7.0 0.00 0.00 0.00 72 1020.3
20260507155056 53 73 3.0 10.0 0.00 0.00 0.00 73 1020.4
20260507154557 53 360 4.0 10.0 0.00 0.00 0.00 72 1020.4
20260507154054 53 360 2.0 7.0 0.00 0.00 0.00 73 1020.4
20260507153555 53 5 3.0 8.0 0.00 0.00 0.00 72 1020.4
20260507153059 53 48 2.0 8.0 0.00 0.00 0.00 74 1020.4
20260507152556 53 44 3.0 9.0 0.00 0.00 0.00 73 1020.4
20260507152056 53 55 3.0 9.0 0.00 0.00 0.00 73 1020.4
20260507151553 53 35 1.0 5.0 0.00 0.00 0.00 73 1020.5
20260507151055 53 42 1.0 5.0 0.00 0.00 0.00 74 1020.4
20260507150556 52 349 2.0 7.0 0.00 0.00 0.00 74 1020.4
20260507150056 52 9 1.0 7.0 0.00 0.00 0.00 75 1020.4
20260507145554 52 50 2.0 6.0 0.00 0.00 0.00 75 1020.4
20260507145056 52 26 1.0 9.0 0.00 0.00 0.00 75 1020.4
20260507144608 52 0 3.0 9.0 0.00 0.00 0.00 75 1020.4
20260507144058 52 49 3.0 9.0 0.00 0.00 0.00 75 1020.4
20260507143555 52 46 2.0 8.0 0.00 0.00 0.00 75 1020.3
20260507143100 52 11 2.0 8.0 0.00 0.00 0.00 76 1020.3
20260507142555 52 22 3.0 8.0 0.00 0.00 0.00 76 1020.3
20260507142053 52 13 2.0 8.0 0.00 0.00 0.00 76 1020.3
20260507141603 52 352 2.0 5.0 0.00 0.00 0.00 76 1020.3
20260507141053 52 26 2.0 4.0 0.00 0.00 0.00 76 1020.3
20260507140557 52 46 1.0 4.0 0.00 0.00 0.00 76 1020.2
20260507140056 51 28 1.0 5.0 0.00 0.00 0.00 76 1020.1
20260507135555 51 30 1.0 5.0 0.00 0.00 0.00 76 1020.2
20260507135056 51 28 2.0 5.0 0.00 0.00 0.00 76 1020.2
20260507134559 51 0 1.0 4.0 0.00 0.00 0.00 77 1020.1
20260507134053 51 11 1.0 4.0 0.00 0.00 0.00 76 1020.0
20260507133554 51 34 2.0 4.0 0.00 0.00 0.00 76 1019.9
20260507133147 51 28 0.0 5.0 0.00 0.00 0.00 76 1020.0
20260507132553 51 11 2.0 5.0 0.00 0.00 0.00 77 1020.0
20260507132053 51 360 2.0 5.0 0.00 0.00 0.00 76 1019.9
20260507131602 51 32 2.0 4.0 0.00 0.00 0.00 76 1019.9
20260507131055 52 55 1.0 3.0 0.00 0.00 0.00 77 1020.0
20260507130558 52 43 1.0 3.0 0.00 0.00 0.00 77 1020.0
20260507130108 52 15 1.0 5.0 0.00 0.00 0.00 77 1020.1
20260507125556 52 25 2.0 5.0 0.00 0.00 0.00 77 1020.0
20260507125059 52 350 2.0 7.0 0.00 0.00 0.00 77 1020.1
20260507124606 52 48 1.0 7.0 0.00 0.00 0.00 77 1020.1
20260507124057 52 42 2.0 7.0 0.00 0.00 0.00 77 1020.1
20260507123554 52 22 2.0 7.0 0.00 0.00 0.00 78 1020.1
20260507123100 52 30 2.0 4.0 0.00 0.00 0.00 78 1020.1
20260507122552 52 42 1.0 4.0 0.00 0.00 0.00 78 1020.0
20260507122052 52 35 1.0 5.0 0.00 0.00 0.00 78 1020.1
20260507121604 52 24 1.0 5.0 0.00 0.00 0.00 78 1020.1
20260507121054 52 38 2.0 5.0 0.00 0.00 0.00 78 1020.1
20260507120553 52 9 0.0 3.0 0.00 0.00 0.00 78 1020.1
20260507120056 52 0 0.0 4.0 0.00 0.00 0.00 78 1020.2
20260507115556 52 16 1.0 4.0 0.00 0.00 0.00 78 1020.2
20260507115053 52 21 1.0 4.0 0.00 0.00 0.00 78 1020.3
20260507114608 52 24 1.0 3.0 0.00 0.00 0.00 78 1020.3
20260507114056 52 11 1.0 3.0 0.00 0.00 0.00 78 1020.3
20260507113556 52 19 1.0 4.0 0.00 0.00 0.00 78 1020.3
20260507113053 52 0 1.0 4.0 0.00 0.00 0.00 78 1020.4
20260507112553 52 43 1.0 3.0 0.00 0.00 0.00 78 1020.4
20260507112057 52 14 0.0 5.0 0.00 0.00 0.00 78 1020.3
20260507111555 53 14 1.0 5.0 0.00 0.00 0.00 78 1020.4
20260507111052 53 21 2.0 5.0 0.00 0.00 0.00 78 1020.4
20260507110558 53 17 1.0 4.0 0.00 0.00 0.00 78 1020.4
20260507110059 53 19 1.0 4.0 0.00 0.00 0.00 78 1020.4
20260507105553 53 31 1.0 4.0 0.00 0.00 0.00 78 1020.4
20260507105056 53 37 0.0 3.0 0.00 0.00 0.00 78 1020.5
20260507104555 53 37 0.0 3.0 0.00 0.00 0.00 78 1020.4
20260507104051 53 40 0.0 4.0 0.00 0.00 0.00 77 1020.5
20260507103557 53 0 0.0 4.0 0.00 0.00 0.00 77 1020.5
20260507103058 53 0 0.0 5.0 0.00 0.00 0.00 77 1020.5
20260507102552 53 0 1.0 7.0 0.00 0.00 0.00 77 1020.6
20260507102058 53 11 1.0 7.0 0.00 0.00 0.00 77 1020.6
20260507101556 53 19 2.0 5.0 0.00 0.00 0.00 77 1020.6
20260507101056 53 21 2.0 4.0 0.00 0.00 0.00 77 1020.6
20260507100555 53 0 0.0 6.0 0.00 0.00 0.00 76 1020.6
20260507100056 53 0 0.0 7.0 0.00 0.00 0.00 76 1020.7
20260507095553 53 5 2.0 7.0 0.00 0.00 0.00 76 1020.7
20260507095054 53 5 1.0 6.0 0.00 0.00 0.00 76 1020.8
20260507094600 53 12 2.0 8.0 0.00 0.00 0.00 76 1020.8
20260507094054 53 5 2.0 8.0 0.00 0.00 0.00 76 1020.9
20260507093553 53 21 1.0 4.0 0.00 0.00 0.00 75 1020.9
20260507093055 53 306 1.0 4.0 0.00 0.00 0.00 75 1021.0
20260507092559 54 360 0.0 4.0 0.00 0.00 0.00 75 1021.0
20260507092058 54 221 1.0 5.0 0.00 0.00 0.00 75 1021.0
20260507091554 54 0 1.0 6.0 0.00 0.00 0.00 75 1021.1
20260507091056 54 347 0.0 7.0 0.00 0.00 0.00 75 1021.1
20260507090557 54 323 1.0 7.0 0.00 0.00 0.00 75 1021.1
20260507090053 54 0 0.0 4.0 0.00 0.00 0.00 76 1021.2
20260507085554 54 0 1.0 5.0 0.00 0.00 0.00 75 1021.2
20260507085054 54 0 1.0 5.0 0.00 0.00 0.00 75 1021.1
20260507084559 54 9 1.0 4.0 0.00 0.00 0.00 75 1021.1
20260507084053 54 352 2.0 4.0 0.00 0.00 0.00 76 1021.1
20260507083554 54 23 1.0 4.0 0.00 0.00 0.00 76 1021.1
20260507083057 54 5 1.0 4.0 0.00 0.00 0.00 76 1021.1
20260507082555 54 327 0.0 4.0 0.00 0.00 0.00 77 1021.1
20260507082055 54 5 1.0 4.0 0.00 0.00 0.00 78 1021.1
20260507081553 54 355 0.0 6.0 0.00 0.00 0.00 78 1021.1
20260507081055 54 9 1.0 6.0 0.00 0.00 0.00 78 1021.2
20260507080556 54 5 0.0 4.0 0.00 0.00 0.00 78 1021.1
20260507080056 54 0 1.0 4.0 0.00 0.00 0.00 78 1021.1
20260507075555 54 42 0.0 5.0 0.00 0.00 0.00 78 1021.2
20260507075055 54 360 0.0 5.0 0.00 0.00 0.00 78 1021.2
20260507074554 54 14 1.0 5.0 0.00 0.00 0.00 78 1021.2
20260507074053 54 309 0.0 4.0 0.00 0.00 0.00 78 1021.2
20260507073556 54 0 0.0 4.0 0.00 0.00 0.00 78 1021.1
20260507073103 54 355 1.0 4.0 0.00 0.00 0.00 78 1021.1
20260507072554 54 0 1.0 3.0 0.00 0.00 0.00 78 1021.1
20260507072058 54 10 0.0 5.0 0.00 0.00 0.00 78 1021.1
20260507071554 54 0 1.0 5.0 0.00 0.00 0.00 79 1021.0
20260507071056 54 44 2.0 5.0 0.00 0.00 0.00 78 1021.0
20260507070556 54 9 1.0 5.0 0.00 0.00 0.00 78 1021.0
20260507070105 54 352 2.0 5.0 0.00 0.00 0.00 78 1021.0
20260507065600 54 29 2.0 8.0 0.00 0.00 0.00 78 1021.0
20260507065055 54 0 2.0 8.0 0.00 0.00 0.00 78 1021.0
20260507064558 54 352 2.0 7.0 0.00 0.00 0.00 79 1021.0
20260507064055 54 5 2.0 8.0 0.00 0.00 0.00 79 1021.1
20260507063553 55 19 3.0 8.0 0.00 0.00 0.00 79 1020.9
20260507063057 55 13 3.0 7.0 0.00 0.00 0.00 79 1020.9
20260507062553 55 0 1.0 5.0 0.00 0.00 0.00 79 1021.0
20260507062053 55 5 1.0 5.0 0.00 0.00 0.00 79 1021.1
20260507061555 55 0 1.0 7.0 0.00 0.00 0.00 80 1021.0
20260507061056 55 24 2.0 7.0 0.00 0.00 0.00 80 1021.0
20260507060555 55 12 1.0 9.0 0.00 0.00 0.00 80 1021.1
20260507060055 55 52 2.0 9.0 0.00 0.00 0.00 79 1021.1
20260507055556 55 13 3.0 11.0 0.00 0.00 0.00 79 1021.1
20260507055059 55 360 4.0 11.0 0.00 0.00 0.00 79 1021.1
20260507054556 55 5 2.0 11.0 0.00 0.00 0.00 79 1021.0
20260507054055 55 344 3.0 8.0 0.00 0.00 0.00 79 1021.0
20260507053556 55 13 1.0 8.0 0.00 0.00 0.00 79 1021.0
20260507053102 56 5 2.0 6.0 0.00 0.00 0.00 78 1021.0
20260507052555 56 0 2.0 9.0 0.00 0.00 0.00 78 1021.0
20260507052055 56 5 3.0 9.0 0.00 0.00 0.00 78 1021.0
20260507051555 56 9 1.0 8.0 0.00 0.00 0.00 78 1020.9
20260507051053 56 352 2.0 8.0 0.00 0.00 0.00 78 1020.9
20260507050556 56 360 3.0 8.0 0.00 0.00 0.00 78 1021.0
20260507050057 56 84 1.0 8.0 0.00 0.00 0.00 78 1020.9
20260507045553 56 5 2.0 5.0 0.00 0.00 0.00 78 1021.0
20260507045056 56 360 1.0 7.0 0.00 0.00 0.00 78 1020.9
20260507044623 56 311 2.0 7.0 0.00 0.00 0.00 78 1021.0
20260507044056 57 352 2.0 8.0 0.00 0.00 0.00 77 1020.9
20260507043555 57 34 3.0 10.0 0.00 0.00 0.00 77 1020.9
20260507043053 57 34 4.0 11.0 0.00 0.00 0.00 77 1020.8
20260507042556 57 318 3.0 11.0 0.00 0.00 0.00 77 1020.8
20260507042056 57 26 4.0 11.0 0.00 0.00 0.00 76 1020.8
20260507041555 57 5 4.0 9.0 0.00 0.00 0.00 76 1020.7
20260507041053 58 40 2.0 11.0 0.00 0.00 0.00 77 1020.6
20260507040556 58 333 2.0 11.0 0.00 0.00 0.00 76 1020.6
20260507040101 58 15 3.0 14.0 0.00 0.00 0.00 76 1020.5
20260507035553 58 33 1.0 14.0 0.00 0.00 0.00 76 1020.4
20260507035053 58 5 4.0 11.0 0.00 0.00 0.00 76 1020.4
20260507034602 59 355 2.0 8.0 0.00 0.00 0.00 76 1020.3
20260507034056 59 47 1.0 10.0 0.00 0.00 0.00 76 1020.2
20260507033554 59 336 1.0 10.0 0.00 0.00 0.00 76 1020.2
20260507033120 59 310 1.0 9.0 0.00 0.00 0.00 76 1020.0
20260507032556 59 5 1.0 4.0 0.00 0.00 0.00 77 1020.0
20260507032055 59 14 1.0 5.0 0.00 0.00 0.00 77 1019.8
20260507031603 59 11 2.0 5.0 0.00 0.00 0.00 77 1019.9
20260507031057 59 346 0.0 4.0 0.00 0.00 0.00 77 1019.8
20260507030557 59 350 1.0 4.0 0.00 0.00 0.00 77 1019.8
20260507030110 59 349 1.0 5.0 0.00 0.00 0.00 77 1019.7
20260507025556 59 321 2.0 5.0 0.00 0.00 0.00 76 1019.7